Regional Weather Roundup
Issued by NWS

Home | Current Version | Previous Version | Graphics & Text | Print | Product List | Glossary On
Versions: 1 2 3 4 5 6 7 8 9 10 11 12 13 14 15 16 17 18 19 20 21 22 23 24 25 26 27 28 29 30 31 32 33 34 35 36 37 38 39 40 41 42 43 44 45 46 47 48 49 50
887
ASUS43 KBIS 242002
RWRND

NORTH DAKOTA REGIONAL WEATHER ROUNDUP
NATIONAL WEATHER SERVICE BISMARCK ND
300 PM CDT SAT JUN 24 2017

NOTE: "FAIR" INDICATES FEW OR NO CLOUDS BELOW 12,000 FEET WITH NO
SIGNIFICANT WEATHER AND/OR OBSTRUCTIONS TO VISIBILITY.


NDZ001>003-009>011-017-242100-
NORTHWEST NORTH DAKOTA

CITY           SKY/WX    TMP DP  RH WIND       PRES   REMARKS
WILLISTON      PTSUNNY   66  35  31 N16G28    30.28F
MINOT          CLOUDY    57  41  55 NW15      30.22S
MINOT AFB      CLOUDY    57  40  53 NW17      30.21S
$$

NDZ018>021-031>035-040>046-242100-
SOUTHWEST NORTH DAKOTA

CITY           SKY/WX    TMP DP  RH WIND       PRES   REMARKS
BISMARCK       CLOUDY    61  41  47 N18G28    30.23R
DICKINSON      SUNNY     64  30  27 N18G31    30.25S
GARRISON         N/A     57  40  52 N17G28    30.22S
HETTINGER ARPT SUNNY     68  30  24 NW18G31   30.26F
$$

NDZ004>008-012>016-024-026-027-054-242100-
NORTHEAST NORTH DAKOTA

CITY           SKY/WX    TMP DP  RH WIND       PRES   REMARKS
GRAND FORKS    LGT RAIN  55  51  86 NW17G28   30.06R
GRND FRKS AFB  CLOUDY    55  48  77 N18G26    30.07R
DEVILS LAKE    CLOUDY    55  44  66 N23G29    30.14R
$$

NDZ022-023-025-028>030-036>039-047>053-242100-
SOUTHEAST NORTH DAKOTA

CITY           SKY/WX    TMP DP  RH WIND       PRES   REMARKS
FARGO          CLOUDY    59  46  62 NW17G28   30.07R
JAMESTOWN      CLOUDY    56  44  64 NW24      30.14R
$$





USA.gov is the U.S. government's official web portal to all federal, state and local government web resources and services.